Date String (YYYY-MM-DD hh:mm:ss) UTC,Instrument flags,Ambient pressure (hPa),Sample flow (lpm),Bypass flow (lpm),Sample temperature (°C),Ambient temperature (°C),ASC tube jacket temperature (°C),LED temperature (°C),Box temperature (°C),Sample RH (%),Span deviation,Mass concentration (μg/m³),Mass concentration (μg/m³),Mass concentration (μg/m³)
DateTimeUTC,F1_M11,P_M11,Q1_M11,Q2_M11,T1_M11,T2_M11,T3_M11,T4_M11,T5_M11,U1_M11,ZSPAN_M11,X2_M11,X0_M11,X1_M11
2023-05-24 23:00:00,,0829.4,5.01,0.00,29.4,27.5,00.0,37.7,31.0,27.0,0002.8,0012.72,0020.12,0011.88
2023-05-24 23:01:00,,0829.3,4.99,0.00,29.4,27.6,00.0,37.7,31.0,25.9,0002.8,0012.71,0019.82,0011.91
2023-05-24 23:02:00,,0829.3,5.00,0.00,29.4,27.7,00.0,37.7,31.0,25.9,0002.8,0012.47,0019.44,0011.70
2023-05-24 23:03:00,,0829.4,5.00,0.00,29.4,27.8,00.0,37.8,31.1,25.1,0002.9,0012.22,0019.11,0011.46
2023-05-24 23:04:00,,0829.4,5.00,0.00,29.5,27.9,00.0,37.8,31.1,25.0,0002.9,0011.92,0018.91,0011.19
2023-05-24 23:05:00,,0829.4,5.00,0.00,29.5,28.0,00.0,37.8,31.1,26.4,0003.1,0011.68,0018.56,0010.96
2023-05-24 23:06:00,,0829.4,5.01,0.00,29.5,28.0,00.0,37.8,31.2,26.6,0003.1,0011.52,0018.31,0010.80
2023-05-24 23:07:00,,0829.3,5.00,0.00,29.5,28.1,00.0,37.8,31.2,27.1,0003.3,0011.36,0017.68,0010.65
2023-05-24 23:08:00,,0829.3,5.00,0.00,29.5,28.1,00.0,37.8,31.2,27.2,0003.4,0011.33,0017.57,0010.61
2023-05-24 23:09:00,,0829.2,5.00,0.00,29.6,28.1,00.0,37.8,31.2,26.9,0003.4,0011.29,0017.25,0010.56
2023-05-24 23:10:00,,0829.2,5.00,0.00,29.6,28.2,00.0,37.8,31.2,28.2,0003.3,0011.40,0017.43,0010.68
2023-05-24 23:11:00,,0829.2,4.99,0.00,29.6,28.2,00.0,37.9,31.3,28.1,0003.1,0011.46,0017.89,0010.76
2023-05-24 23:12:00,,0829.2,5.00,0.00,29.6,28.2,00.0,37.9,31.3,28.5,0003.1,0011.47,0017.97,0010.77
2023-05-24 23:13:00,,0829.2,5.00,0.00,29.6,28.3,00.0,37.9,31.3,28.5,0003.1,0011.79,0018.47,0011.08
2023-05-24 23:14:00,,0829.2,5.01,0.00,29.7,28.3,00.0,37.9,31.3,28.8,0003.2,0012.17,0019.10,0011.41
2023-05-24 23:15:00,,0829.1,5.01,0.00,29.7,28.3,00.0,37.9,31.3,28.3,0003.2,0012.51,0020.07,0011.69
2023-05-24 23:16:00,,0829.1,5.01,0.00,29.7,28.3,00.0,37.9,31.4,28.9,0003.3,0012.86,0021.08,0012.00
2023-05-24 23:17:00,,0829.1,5.00,0.00,29.7,28.3,00.0,38.0,31.4,29.2,0003.2,0013.24,0022.56,0012.33
2023-05-24 23:18:00,,0829.0,4.98,0.00,29.7,28.4,00.0,38.0,31.4,29.3,0003.1,0013.71,0024.03,0012.72
2023-05-24 23:19:00,,0829.1,5.00,0.00,29.7,28.3,00.0,38.0,31.4,29.1,0003.1,0014.03,0024.67,0013.00
2023-05-24 23:20:00,,0829.0,5.00,0.00,29.7,27.0,00.0,37.9,31.2,29.4,0003.1,0014.41,0025.37,0013.36
2023-05-24 23:21:00,,0829.0,5.01,0.00,29.7,25.8,00.0,37.9,31.0,29.5,0003.1,0014.77,0025.89,0013.67
2023-05-24 23:22:00,,0828.9,5.01,0.00,29.6,25.7,00.0,37.8,30.9,29.6,0003.0,0015.03,0026.22,0013.90
2023-05-24 23:23:00,,0828.9,5.01,0.00,29.5,25.9,00.0,37.8,30.8,30.3,0002.9,0015.25,0026.80,0014.05
2023-05-24 23:24:00,,0828.9,5.00,0.00,29.4,26.2,00.0,37.8,30.9,30.7,0002.8,0015.52,0027.18,0014.26
2023-05-24 23:25:00,,0829.0,5.00,0.00,29.4,26.5,00.0,37.8,30.9,30.7,0002.7,0015.77,0027.85,0014.50
2023-05-24 23:26:00,,0828.9,5.00,0.00,29.4,26.7,00.0,37.8,30.9,30.8,0002.7,0016.13,0028.53,0014.86
2023-05-24 23:27:00,,0828.9,5.00,0.00,29.4,27.0,00.0,37.8,31.0,31.3,0002.6,0016.49,0029.35,0015.18
2023-05-24 23:28:00,,0828.9,5.01,0.00,29.4,27.2,00.0,37.8,31.0,31.4,0002.8,0016.61,0029.27,0015.34
2023-05-24 23:29:00,,0828.9,5.01,0.00,29.4,27.4,00.0,37.8,31.0,31.4,0002.7,0016.67,0029.27,0015.43
2023-05-24 23:30:00,,0828.9,5.00,0.00,29.4,27.5,00.0,37.8,31.1,31.6,0002.6,0016.76,0029.56,0015.52
2023-05-24 23:31:00,,0828.9,5.00,0.00,29.4,27.7,00.0,37.8,31.1,31.6,0002.6,0017.05,0030.21,0015.79
2023-05-24 23:32:00,,0828.9,5.00,0.00,29.4,27.8,00.0,37.8,31.1,31.9,0002.7,0017.37,0031.50,0016.07
2023-05-24 23:33:00,,0828.9,5.00,0.00,29.5,27.9,00.0,37.8,31.1,31.8,0002.8,0017.69,0032.08,0016.35
2023-05-24 23:34:00,,0828.9,5.00,0.00,29.5,27.9,00.0,37.8,31.1,31.5,0002.9,0017.93,0032.67,0016.63
2023-05-24 23:35:00,,0828.9,5.00,0.00,29.5,28.0,00.0,37.8,31.2,31.3,0002.9,0018.10,0033.98,0016.79
2023-05-24 23:36:00,,0828.8,5.00,0.00,29.5,28.1,00.0,37.8,31.2,31.1,0002.9,0018.23,0034.34,0016.91
2023-05-24 23:37:00,,0828.8,5.01,0.00,29.5,28.1,00.0,37.8,31.2,31.3,0002.9,0018.28,0033.92,0016.95
2023-05-24 23:38:00,,0828.8,5.01,0.00,29.6,28.2,00.0,37.8,31.2,31.0,0002.8,0018.30,0033.42,0016.96
2023-05-24 23:39:00,,0828.8,5.01,0.00,29.6,28.2,00.0,37.9,31.3,30.9,0002.7,0018.34,0034.17,0017.00
2023-05-24 23:40:00,,0828.8,5.00,0.00,29.6,28.2,00.0,37.9,31.3,30.8,0002.7,0018.46,0033.99,0017.10
2023-05-24 23:41:00,,0828.7,4.99,0.00,29.6,28.3,00.0,37.9,31.3,30.9,0002.8,0018.55,0033.57,0017.18
2023-05-24 23:42:00,,0828.8,5.00,0.00,29.7,28.3,00.0,37.9,31.3,31.2,0002.7,0018.45,0033.14,0017.04
2023-05-24 23:43:00,,0828.8,5.00,0.00,29.7,28.3,00.0,37.9,31.4,31.2,0002.6,0018.28,0031.80,0016.87
2023-05-24 23:44:00,,0828.8,5.01,0.00,29.7,28.4,00.0,37.9,31.4,30.8,0002.6,0018.15,0031.30,0016.74
2023-05-24 23:45:00,,0828.8,5.00,0.00,29.7,28.4,00.0,38.0,31.4,31.2,0002.6,0018.00,0030.80,0016.55
2023-05-24 23:46:00,,0828.8,5.00,0.00,29.7,28.4,00.0,38.0,31.4,31.2,0002.6,0017.77,0029.69,0016.32
2023-05-24 23:47:00,,0828.8,5.00,0.00,29.8,28.4,00.0,38.0,31.4,30.2,0002.7,0017.59,0029.11,0016.12
2023-05-24 23:48:00,,0828.8,5.01,0.00,29.8,28.5,00.0,38.0,31.5,30.3,0002.7,0017.42,0028.99,0015.95
2023-05-24 23:49:00,,0828.8,5.00,0.00,29.8,28.5,00.0,38.0,31.5,30.7,0002.7,0017.26,0028.27,0015.78
2023-05-24 23:50:00,,0828.8,4.98,0.00,29.8,27.7,00.0,38.0,31.4,30.5,0002.7,0017.13,0027.03,0015.62
2023-05-24 23:51:00,,0828.7,5.00,0.00,29.8,26.1,00.0,37.9,31.2,30.3,0002.8,0016.91,0026.81,0015.40
2023-05-24 23:52:00,,0828.8,5.02,0.00,29.7,25.7,00.0,37.9,31.1,30.1,0002.6,0016.81,0027.48,0015.25
2023-05-24 23:53:00,,0828.8,5.00,0.00,29.6,25.8,00.0,37.9,30.9,30.4,0002.6,0016.65,0027.42,0015.13
2023-05-24 23:54:00,,0828.8,5.00,0.00,29.5,26.1,00.0,37.9,30.9,30.6,0002.6,0016.46,0027.36,0014.98
2023-05-24 23:55:00,,0828.8,5.00,0.00,29.5,26.4,00.0,37.9,31.0,30.8,0002.6,0016.24,0028.15,0014.82
2023-05-24 23:56:00,,0828.8,5.01,0.00,29.5,26.7,00.0,37.9,31.0,30.4,0002.7,0016.05,0028.04,0014.68
2023-05-24 23:57:00,,0828.8,5.00,0.00,29.5,26.9,00.0,37.9,31.0,30.2,0002.7,0015.88,0028.07,0014.52
2023-05-24 23:58:00,,0828.8,5.00,0.00,29.4,27.2,00.0,37.8,31.1,30.3,0002.7,0015.66,0028.19,0014.32
2023-05-24 23:59:00,,0828.9,5.00,0.00,29.5,27.4,00.0,37.8,31.1,30.6,0002.6,0015.45,0028.72,0014.11
